K0BL Weather Reports


time (UTC)temp
C
wind
direction
speed
KPH
gust
KPH
rain 1hr
cm
rain 24hr
cm
rain mn
cm
humidity
%
barometer
mb
20260507191947 18 300 4.8 14.5 0.00 0.00 0.00 46 1008.6
20260507191448 18 242 6.4 14.5 0.00 0.00 0.00 51 1008.8
20260507190944 18 309 4.8 11.3 0.00 0.00 0.00 47 1008.8
20260507185944 18 304 3.2 12.9 0.00 0.00 0.00 43 1008.7
20260507185444 18 253 4.8 12.9 0.00 0.00 0.00 43 1008.8
20260507184944 18 282 4.8 12.9 0.00 0.00 0.00 47 1009.0
20260507184444 18 357 3.2 12.9 0.00 0.00 0.00 49 1009.0
20260507183944 18 13 3.2 8.0 0.00 0.00 0.00 49 1009.0
20260507183444 18 63 6.4 9.7 0.00 0.00 0.00 48 1009.0
20260507182944 18 47 6.4 11.3 0.00 0.00 0.00 49 1009.1
20260507182444 18 2 6.4 11.3 0.00 0.00 0.00 48 1009.2
20260507181945 18 19 8.0 11.3 0.00 0.00 0.00 49 1009.3
20260507181441 18 345 8.0 12.9 0.00 0.00 0.00 49 1009.4
20260507180938 17 357 8.0 16.1 0.00 0.00 0.00 50 1009.5
20260507180438 18 359 8.0 16.1 0.00 0.00 0.00 50 1009.5
20260507175939 18 7 8.0 9.7 0.00 0.00 0.00 49 1009.6
20260507175439 19 357 6.4 14.5 0.00 0.00 0.00 49 1009.6
20260507174939 19 91 3.2 14.5 0.00 0.00 0.00 48 1009.8
20260507173939 18 283 4.8 12.9 0.00 0.00 0.00 48 1010.0
20260507172939 17 338 6.4 19.3 0.00 0.00 0.00 51 1010.2
20260507172439 18 349 6.4 19.3 0.00 0.00 0.00 51 1010.2
20260507171939 18 118 4.8 19.3 0.00 0.00 0.00 51 1010.3
20260507171439 17 16 4.8 14.5 0.00 0.00 0.00 50 1010.4
20260507165936 16 268 8.0 17.7 0.00 0.00 0.00 53 1010.7
20260507165436 16 318 8.0 17.7 0.00 0.00 0.00 54 1010.8
20260507164934 16 243 8.0 19.3 0.00 0.00 0.00 53 1010.8
20260507164433 16 214 11.3 27.4 0.00 0.00 0.00 53 1011.0
20260507163934 16 253 11.3 27.4 0.00 0.00 0.00 54 1010.9
20260507163434 16 348 8.0 22.5 0.00 0.00 0.00 52 1011.0
20260507162934 16 239 6.4 17.7 0.00 0.00 0.00 54 1011.0
20260507162435 16 259 9.7 22.5 0.00 0.00 0.00 54 1011.1
20260507161934 15 144 11.3 22.5 0.00 0.00 0.00 55 1011.2
20260507161434 15 98 11.3 25.7 0.00 0.00 0.00 56 1011.2
20260507160934 15 277 9.7 25.7 0.00 0.00 0.00 56 1011.2
20260507155934 15 56 9.7 17.7 0.00 0.00 0.00 57 1011.5
20260507155434 15 289 8.0 20.9 0.00 0.00 0.00 58 1011.6
20260507154934 15 340 9.7 20.9 0.00 0.00 0.00 57 1011.7
20260507154431 14 299 9.7 20.9 0.00 0.00 0.00 57 1011.7
20260507153926 14 265 6.4 17.7 0.00 0.00 0.00 59 1011.7
20260507153426 13 13 6.4 11.3 0.00 0.00 0.00 59 1011.6
20260507152922 13 318 6.4 11.3 0.00 0.00 0.00 60 1011.6
20260507152422 13 309 6.4 11.3 0.00 0.00 0.00 60 1011.5
20260507151922 13 101 6.4 9.7 0.00 0.00 0.00 61 1011.4
20260507151423 13 354 6.4 12.9 0.00 0.00 0.00 61 1011.5
20260507150422 13 243 6.4 12.9 0.00 0.00 0.00 60 1011.5
20260507145923 13 70 6.4 12.9 0.00 0.00 0.00 60 1011.6
20260507145423 13 273 6.4 12.9 0.00 0.00 0.00 60 1011.5
20260507144923 13 246 6.4 12.9 0.00 0.00 0.00 60 1011.5
20260507143923 13 324 6.4 11.3 0.00 0.00 0.00 61 1011.7
20260507143423 13 21 6.4 12.9 0.00 0.00 0.00 61 1011.5
20260507142924 13 230 6.4 12.9 0.00 0.00 0.00 61 1011.3
20260507141921 13 221 6.4 9.7 0.00 0.00 0.00 61 1011.3
20260507141421 13 80 6.4 12.9 0.00 0.00 0.00 61 1011.3
20260507140918 13 226 6.4 12.9 0.00 0.00 0.00 60 1011.2
20260507140418 13 37 6.4 14.5 0.00 0.00 0.00 60 1011.3
20260507135918 12 232 6.4 14.5 0.00 0.00 0.00 60 1011.3
20260507135417 12 251 6.4 12.9 0.00 0.00 0.00 61 1011.3
20260507134918 12 247 6.4 20.9 0.00 0.00 0.00 62 1011.2
20260507134418 12 223 6.4 20.9 0.00 0.00 0.00 61 1011.3
20260507133418 11 241 4.8 11.3 0.00 0.00 0.00 61 1011.3
20260507132918 11 298 4.8 11.3 0.00 0.00 0.00 62 1011.4
20260507131916 10 32 4.8 9.7 0.00 0.00 0.00 62 1011.4
20260507131416 10 195 4.8 9.7 0.00 0.00 0.00 62 1011.3
20260507130913 10 220 4.8 9.7 0.00 0.00 0.00 62 1011.3
20260507125410 9 221 3.2 11.3 0.00 0.00 0.00 63 1011.3
20260507124910 9 244 3.2 8.0 0.00 0.00 0.00 64 1011.2
20260507124410 8 88 3.2 8.0 0.00 0.00 0.00 64 1011.3
20260507123910 8 199 3.2 6.4 0.00 0.00 0.00 64 1011.3
20260507123410 8 203 3.2 8.0 0.00 0.00 0.00 65 1011.3
20260507122910 8 221 3.2 9.7 0.00 0.00 0.00 65 1011.3
20260507121910 7 226 3.2 8.0 0.00 0.00 0.00 65 1011.3
20260507121411 7 231 3.2 8.0 0.00 0.00 0.00 66 1011.3
20260507120411 7 243 3.2 8.0 0.00 0.00 0.00 68 1011.3
20260507115907 6 158 3.2 6.4 0.00 0.00 0.00 68 1011.3
20260507115407 6 223 3.2 8.0 0.00 0.00 0.00 69 1011.3
20260507114907 6 225 3.2 8.0 0.00 0.00 0.00 68 1011.3
20260507114407 6 180 1.6 6.4 0.00 0.00 0.00 69 1011.3
20260507113907 6 213 1.6 6.4 0.00 0.00 0.00 70 1011.3
20260507113407 6 181 1.6 4.8 0.00 0.00 0.00 70 1011.2
20260507112908 6 175 1.6 4.8 0.00 0.00 0.00 69 1011.3
20260507112408 6 186 0.0 4.8 0.00 0.00 0.00 70 1011.3
20260507111905 5 0 0.0 3.2 0.00 0.00 0.00 72 1011.2
20260507111405 5 0 1.6 3.2 0.00 0.00 0.00 71 1011.1
20260507110904 5 94 1.6 3.2 0.00 0.00 0.00 73 1011.2
20260507110405 5 158 0.0 3.2 0.00 0.00 0.00 73 1011.3
20260507105905 5 0 0.0 3.2 0.00 0.00 0.00 73 1011.3
20260507105404 5 0 0.0 3.2 0.00 0.00 0.00 73 1011.5
20260507104903 5 0 0.0 3.2 0.00 0.00 0.00 73 1011.6
20260507104404 5 60 1.6 6.4 0.00 0.00 0.00 73 1011.7
20260507103902 5 84 1.6 6.4 0.00 0.00 0.00 72 1011.7
20260507103402 5 0 1.6 6.4 0.00 0.00 0.00 73 1011.8
20260507102902 5 0 1.6 6.4 0.00 0.00 0.00 76 1011.8
20260507102400 4 84 1.6 6.4 0.00 0.00 0.00 78 1011.9
20260507101859 3 198 0.0 4.8 0.00 0.00 0.00 81 1012.0
20260507101359 3 0 0.0 3.2 0.00 0.00 0.00 83 1012.1
20260507100856 3 0 0.0 3.2 0.00 0.00 0.00 83 1012.1
20260507100354 3 60 0.0 3.2 0.00 0.00 0.00 83 1012.2
20260507095354 3 0 1.6 3.2 0.00 0.00 0.00 85 1012.2
20260507094354 2 107 0.0 3.2 0.00 0.00 0.00 86 1012.3
20260507093855 2 70 1.6 3.2 0.00 0.00 0.00 86 1012.3
20260507093355 2 108 1.6 3.2 0.00 0.00 0.00 86 1012.3
20260507092851 2 129 1.6 3.2 0.00 0.00 0.00 87 1012.4
20260507092351 2 93 1.6 3.2 0.00 0.00 0.00 87 1012.4
20260507091848 2 104 1.6 3.2 0.00 0.00 0.00 87 1012.4
20260507091346 2 127 0.0 3.2 0.00 0.00 0.00 87 1012.4
20260507090345 2 0 0.0 3.2 0.00 0.00 0.00 87 1012.4
20260507085843 2 0 0.0 3.2 0.00 0.00 0.00 86 1012.5
20260507085340 2 92 0.0 3.2 0.00 0.00 0.00 86 1012.4
20260507084839 2 0 0.0 3.2 0.00 0.00 0.00 86 1012.4
20260507084339 2 0 0.0 3.2 0.00 0.00 0.00 87 1012.5
20260507083840 2 0 0.0 3.2 0.00 0.00 0.00 87 1012.5
20260507083340 2 0 0.0 3.2 0.00 0.00 0.00 87 1012.6
20260507082840 2 0 0.0 4.8 0.00 0.00 0.00 87 1012.6
20260507082340 2 84 1.6 4.8 0.00 0.00 0.00 88 1012.6
20260507080837 2 0 0.0 3.2 0.00 0.00 0.00 88 1012.6
20260507080334 2 107 1.6 3.2 0.00 0.00 0.00 89 1012.7
20260507075834 2 98 1.6 3.2 0.00 0.00 0.00 90 1012.7
20260507075332 2 126 1.6 3.2 0.00 0.00 0.00 90 1012.7
20260507074825 2 0 0.0 3.2 0.00 0.00 0.00 91 1012.8
20260507074322 2 0 0.0 1.6 0.00 0.00 0.00 91 1012.9
20260507073819 2 0 0.0 1.6 0.00 0.00 0.00 90 1012.9
20260507073319 2 0 0.0 1.6 0.00 0.00 0.00 89 1013.0
20260507072820 2 0 0.0 3.2 0.00 0.00 0.00 89 1013.0
20260507072319 2 0 0.0 3.2 0.00 0.00 0.00 88 1013.0
20260507071818 2 108 0.0 3.2 0.00 0.00 0.00 89 1013.1
20260507071317 2 0 0.0 3.2 0.00 0.00 0.00 89 1013.1
20260507070817 2 0 0.0 3.2 0.00 0.00 0.00 89 1013.2
20260507070317 2 0 0.0 3.2 0.00 0.00 0.00 88 1013.3
20260507065817 2 0 0.0 1.6 0.00 0.00 0.00 88 1013.3
20260507065319 3 0 0.0 1.6 0.00 0.00 0.00 87 1013.4
20260507064315 3 113 0.0 3.2 0.00 0.00 0.00 87 1013.5
20260507063815 3 0 0.0 3.2 0.00 0.00 0.00 87 1013.5
20260507062812 2 0 0.0 3.2 0.00 0.00 0.00 88 1013.5
20260507062308 3 163 0.0 3.2 0.00 0.00 0.00 88 1013.5
20260507061808 3 0 0.0 3.2 0.00 0.00 0.00 88 1013.6
20260507061308 3 113 0.0 1.6 0.00 0.00 0.00 87 1013.6
20260507060809 3 118 0.0 1.6 0.00 0.00 0.00 87 1013.7
20260507060309 3 0 0.0 3.2 0.00 0.00 0.00 86 1013.7
20260507055809 3 0 0.0 3.2 0.00 0.00 0.00 86 1013.8
20260507055309 3 193 0.0 3.2 0.00 0.00 0.00 85 1013.9
20260507054808 3 0 0.0 1.6 0.00 0.00 0.00 85 1013.9
20260507054308 3 0 0.0 1.6 0.00 0.00 0.00 84 1013.9
20260507053808 3 224 0.0 3.2 0.00 0.00 0.00 84 1013.9
20260507053308 3 0 0.0 3.2 0.00 0.00 0.00 84 1013.9
20260507052808 3 193 0.0 1.6 0.00 0.00 0.00 82 1013.8
20260507052307 3 0 0.0 1.6 0.00 0.00 0.00 82 1013.9
20260507051807 4 0 0.0 1.6 0.00 0.00 0.00 81 1013.9
20260507051307 4 0 0.0 1.6 0.00 0.00 0.00 81 1013.9
20260507050803 4 0 0.0 3.2 0.00 0.00 0.00 81 1014.0
20260507050304 4 213 1.6 3.2 0.00 0.00 0.00 80 1014.0
20260507045801 4 198 1.6 3.2 0.00 0.00 0.00 81 1014.0
20260507044801 5 222 0.0 3.2 0.00 0.00 0.00 79 1014.0
20260507044302 4 178 1.6 3.2 0.00 0.00 0.00 80 1014.0
20260507043802 4 207 0.0 3.2 0.00 0.00 0.00 78 1014.0
20260507042801 5 0 0.0 3.2 0.00 0.00 0.00 79 1014.1
20260507041758 5 0 0.0 3.2 0.00 0.00 0.00 77 1014.1
20260507041255 5 219 1.6 3.2 0.00 0.00 0.00 77 1014.1
20260507040256 5 256 0.0 1.6 0.00 0.00 0.00 74 1014.2
20260507035756 5 0 0.0 1.6 0.00 0.00 0.00 74 1014.2
20260507035256 5 0 0.0 1.6 0.00 0.00 0.00 73 1014.2
20260507033753 5 0 0.0 1.6 0.00 0.00 0.00 75 1014.1
20260507032750 5 0 0.0 1.6 0.00 0.00 0.00 76 1014.2
20260507032250 6 0 0.0 1.6 0.00 0.00 0.00 76 1014.2
20260507031250 6 0 1.6 3.2 0.00 0.00 0.00 76 1014.2
20260507030750 6 221 1.6 3.2 0.00 0.00 0.00 75 1014.2
20260507030251 6 238 1.6 3.2 0.00 0.00 0.00 74 1014.2
20260507025751 6 245 1.6 3.2 0.00 0.00 0.00 73 1014.1
20260507024748 6 219 1.6 3.2 0.00 0.00 0.00 72 1014.1
20260507024249 6 206 1.6 3.2 0.00 0.00 0.00 72 1014.0
20260507023749 7 235 1.6 3.2 0.00 0.00 0.00 71 1014.0
20260507023249 7 0 1.6 3.2 0.00 0.00 0.00 70 1014.0
20260507022750 7 0 0.0 3.2 0.00 0.00 0.00 69 1014.1
20260507022249 7 0 1.6 3.2 0.00 0.00 0.00 66 1014.0
20260507021749 7 213 1.6 3.2 0.00 0.00 0.00 65 1014.0
20260507021248 8 252 1.6 3.2 0.00 0.00 0.00 63 1014.0
20260507020748 8 216 1.6 3.2 0.00 0.00 0.00 62 1013.9
20260507015747 8 0 1.6 3.2 0.00 0.00 0.00 57 1013.8
20260507015245 9 229 1.6 3.2 0.00 0.00 0.00 56 1013.8
20260507014745 9 226 1.6 3.2 0.00 0.00 0.00 55 1013.8
20260507013742 10 165 1.6 4.8 0.00 0.00 0.00 51 1013.7
20260507013242 10 227 3.2 4.8 0.00 0.00 0.00 49 1013.7
20260507011739 11 0 1.6 4.8 0.00 0.00 0.00 43 1013.6
20260507011240 12 244 3.2 9.7 0.00 0.00 0.00 42 1013.6
20260507010741 12 241 4.8 11.3 0.00 0.00 0.00 41 1013.5
20260507010240 12 227 6.4 12.9 0.00 0.00 0.00 41 1013.5
20260507005740 12 226 6.4 14.5 0.00 0.00 0.00 40 1013.5
20260507005238 12 226 6.4 14.5 0.00 0.00 0.00 39 1013.5
20260507004738 12 222 6.4 14.5 0.00 0.00 0.00 39 1013.5
20260507004235 12 222 6.4 14.5 0.00 0.00 0.00 38 1013.5
20260507003734 13 231 6.4 16.1 0.00 0.00 0.00 38 1013.6
20260507002735 13 231 8.0 16.1 0.00 0.00 0.00 37 1013.5
20260507002235 13 224 8.0 14.5 0.00 0.00 0.00 36 1013.4
20260507001735 13 226 8.0 16.1 0.00 0.00 0.00 36 1013.5
20260507001235 13 221 8.0 17.7 0.00 0.00 0.00 36 1013.5
20260507000735 13 227 8.0 17.7 0.00 0.00 0.00 36 1013.6
20260507000235 13 225 8.0 17.7 0.00 0.00 0.00 36 1013.6
20260506235735 13 229 8.0 19.3 0.00 0.00 0.00 36 1013.6
20260506235235 14 231 8.0 19.3 0.00 0.00 0.00 36 1013.6
20260506234736 14 226 8.0 16.1 0.00 0.00 0.00 36 1013.7
20260506234235 14 227 8.0 14.5 0.00 0.00 0.00 36 1013.7
20260506233733 14 47 8.0 14.5 0.00 0.00 0.00 36 1013.7
20260506233229 14 233 8.0 14.5 0.00 0.00 0.00 36 1013.7
20260506232729 14 225 8.0 16.1 0.00 0.00 0.00 36 1013.8
20260506231730 13 233 8.0 14.5 0.00 0.00 0.00 37 1013.8
20260506231230 13 227 8.0 17.7 0.00 0.00 0.00 36 1013.9
20260506230730 14 228 8.0 17.7 0.00 0.00 0.00 36 1013.9
20260506230230 14 231 8.0 14.5 0.00 0.00 0.00 37 1013.8
20260506225730 14 235 8.0 16.1 0.00 0.00 0.00 38 1013.9
20260506225230 13 231 9.7 19.3 0.00 0.00 0.00 37 1013.9
20260506224230 13 234 11.3 20.9 0.00 0.00 0.00 37 1014.0
20260506223230 13 241 11.3 20.9 0.00 0.00 0.00 37 1014.0
20260506222728 13 275 11.3 17.7 0.00 0.00 0.00 38 1014.1
20260506222224 13 242 11.3 19.3 0.00 0.00 0.00 38 1014.0
20260506221724 13 237 11.3 19.3 0.00 0.00 0.00 38 1014.1
20260506221225 14 253 11.3 17.7 0.00 0.00 0.00 36 1014.1
20260506220724 13 244 11.3 17.7 0.00 0.00 0.00 38 1014.0
20260506220227 13 244 11.3 17.7 0.00 0.00 0.00 38 1014.1
20260506215727 13 250 11.3 17.7 0.00 0.00 0.00 38 1014.0
20260506215226 13 249 11.3 17.7 0.00 0.00 0.00 38 1014.1
20260506214726 13 255 11.3 19.3 0.00 0.00 0.00 39 1014.1
20260506214226 13 243 11.3 19.3 0.00 0.00 0.00 39 1014.2
20260506213726 13 249 11.3 19.3 0.00 0.00 0.00 39 1014.2
20260506213227 13 247 11.3 17.7 0.00 0.00 0.00 40 1014.3
20260506212726 13 257 11.3 17.7 0.00 0.00 0.00 39 1014.3
20260506212225 13 248 11.3 20.9 0.00 0.00 0.00 39 1014.3
20260506211725 13 252 12.9 20.9 0.00 0.00 0.00 39 1014.3
20260506211224 13 253 14.5 19.3 0.00 0.00 0.00 39 1014.4
20260506210719 13 272 12.9 20.9 0.00 0.00 0.00 39 1014.4
20260506210220 13 269 12.9 20.9 0.00 0.00 0.00 39 1014.5
20260506205718 13 254 12.9 20.9 0.00 0.00 0.00 40 1014.5
20260506205218 13 259 12.9 20.9 0.00 0.00 0.00 39 1014.6
20260506204218 13 253 12.9 20.9 0.00 0.00 0.00 39 1014.7
20260506203718 13 252 12.9 19.3 0.00 0.00 0.00 40 1014.6
20260506203219 13 256 12.9 19.3 0.00 0.00 0.00 40 1014.8
20260506202720 13 255 14.5 20.9 0.00 0.00 0.00 40 1014.7
20260506202218 13 254 14.5 20.9 0.00 0.00 0.00 40 1014.7
20260506201718 13 266 12.9 20.9 0.00 0.00 0.00 40 1014.8
20260506201219 13 249 12.9 19.3 0.00 0.00 0.00 40 1014.8
20260506200718 13 274 12.9 20.9 0.00 0.00 0.00 39 1014.9
20260506200211 13 261 14.5 20.9 0.00 0.00 0.00 40 1014.9
20260506195209 13 240 14.5 19.3 0.00 0.00 0.00 40 1014.9
20260506194707 13 286 14.5 19.3 0.00 0.00 0.00 39 1015.1
20260506194202 12 270 12.9 17.7 0.00 0.00 0.00 40 1015.1
20260506193703 13 296 11.3 17.7 0.00 0.00 0.00 40 1015.2
20260506193203 13 275 9.7 17.7 0.00 0.00 0.00 41 1015.1
20260506192703 13 277 9.7 17.7 0.00 0.00 0.00 40 1014.9
20260506192203 13 235 9.7 19.3 0.00 0.00 0.00 40 1014.9